Find OneWeb SL0409

NORAD ID: 50488 Int'l Des: 2021-132 Owner: ONEWEBN Country: UK Constellation: oneweb operational
LEOCIRCULARPOLARONEWEB_TYPE

Live Position

Loading 3D Globe...

About OneWeb SL0409

Description loading...

Upcoming Passes

Passes for default location (London). Set your location on the main map for personalized predictions.

Altitude History

Loading altitude history...

Two-Line Element Set

1 50488U 21132V 26126.44287025 -.00000494 00000-0 -14285-2 0 9994
2 50488 87.8930 29.3536 0001689 86.9490 273.1831 13.11416623210118
Epoch: May 6, 2026 • Age: 13 hours

Current Status

Altitude 1224.5 km
Velocity 7.25 km/s
Sub-Earth Point 49.45°N, 171.4°E
Launch Date Dec 27, 2021
Age 4.3 years
Type internet

Technical Details

Classification Payload
Mass 148.00 kg
Dry Mass 140.00 kg
Total Mass 148.00 kg
Length 1.30 m
Diameter 1.00 m
Span 5.00 m
Shape Trapezoid+2 pan
Manufacturer ONEWUS
Bus Type ARROW
Phase Status In Orbit
Owner/State ONEWEBN/UK

Most Searched